West Columbia, WV

8:44 AM EDT on July 30, 2016 (GMT -0400)
Point Pleasant

Weather History for K3I2 - March, 2013

Change the Weather History Date:

Monday, March 4, 2013

  Actual Average (KHTS) Record (KHTS)
Temperature  
Mean Temperature 32 °F 42 °F  
Max Temperature 44 °F 52 °F 83 °F (1976)
Min Temperature 21 °F 32 °F 0 °F (1943)
Degree Days  
Heating Degree Days 32 23  
Month to date heating degree days 94  
Since 1 July heating degree days 3595  
Cooling Degree Days 0 0  
Month to date cooling degree days 0  
Year to date cooling degree days 0  
Moisture  
Dew Point 19 °F    
Average Humidity 56    
Maximum Humidity 87    
Minimum Humidity 29    
Precipitation  
Precipitation 0.00 in 0.12 in 1.95 in (2015)
Month to date precipitation 0.47  
Year to date precipitation 6.51  
Snow  
Snow 0.00 in - - ()
Month to date snowfall  
Since 1 September snowfall  
Snow Depth -    
Sea Level Pressure  
Sea Level Pressure 30.12 in    
Wind  
Wind Speed 2 mph (SW)    
Max Wind Speed 8 mph    
Max Gust Speed -    
Visibility 10 miles    
Events Rain    
T = Trace of Precipitation, MM = Missing Value Source: NWS Daily Summary

Daily Weather History Graph

Daily Weather History Graph

Search for Another Location

Airport or City:

Trip Planner

Search our weather history database for the weather conditions in past years. The results will help you decide how hot, cold, wet, or windy it might be!

Date:

Astronomy

Mar. 04, 2013 Rise Set
Actual Time 6:56 AM EST 6:24 PM EST
Civil Twilight 6:29 AM EST 6:51 PM EST
Nautical Twilight 5:58 AM EST 7:22 PM EST
Astronomical Twilight 5:27 AM EST 7:53 PM EST
Moon 1:02 AM EST (3/4) 11:07 AM EST (3/4)
Length of Visible Light 12h 21m
Length of Day
11h 28m
Waning Gibbous, 52% of the Moon is Illuminated
Mar 4
Waning Gibbous
Mar 4
Last Quarter
Mar 11
New
Mar 19
First Quarter
Mar 27
Full

Hourly Weather History & Observations

Time (EST) Temp. Windchill Dew Point Humidity Pressure Visibility Wind Dir Wind Speed Gust Speed Precip Events Conditions
12:15 AM 30.2 °F 26.7 °F 14.0 °F 51% 30.09 in 10.0 mi West 3.5 mph - N/A   Overcast
12:35 AM 30.2 °F 26.7 °F 15.8 °F 55% 30.09 in 10.0 mi West 3.5 mph - N/A   Mostly Cloudy
12:55 AM 30.2 °F - 15.8 °F 55% 30.10 in 10.0 mi Calm Calm - N/A   Overcast
1:15 AM 30.2 °F - 15.8 °F 55% 30.10 in 10.0 mi Calm Calm - N/A   Overcast
1:35 AM 30.2 °F - 15.8 °F 55% 30.11 in 10.0 mi Calm Calm - N/A   Overcast
1:55 AM 30.2 °F - 15.8 °F 55% 30.11 in 10.0 mi Calm Calm - N/A   Overcast
2:15 AM 30.2 °F 25.4 °F 17.6 °F 60% 30.12 in 10.0 mi West 4.6 mph - N/A   Overcast
2:35 AM 30.2 °F - 17.6 °F 60% 30.12 in 10.0 mi Calm Calm - N/A   Mostly Cloudy
2:55 AM 30.2 °F - 17.6 °F 60% 30.12 in 10.0 mi Calm Calm - N/A   Overcast
3:15 AM 28.4 °F - 17.6 °F 64% 30.12 in 10.0 mi Calm Calm - N/A   Mostly Cloudy
3:35 AM 28.4 °F - 17.6 °F 64% 30.12 in 10.0 mi Calm Calm - N/A   Scattered Clouds
3:55 AM 26.6 °F - 17.6 °F 69% 30.12 in 10.0 mi Calm Calm - N/A   Mostly Cloudy
4:15 AM 26.6 °F - 17.6 °F 69% 30.12 in 10.0 mi Calm Calm - N/A   Mostly Cloudy
4:35 AM 26.6 °F - 17.6 °F 69% 30.13 in 10.0 mi Calm Calm - N/A   Mostly Cloudy
4:55 AM 24.8 °F - 19.4 °F 80% 30.14 in 10.0 mi Calm Calm - N/A   Mostly Cloudy
5:15 AM 23.0 °F - 17.6 °F 80% 30.15 in 10.0 mi Calm Calm - N/A   Scattered Clouds
5:35 AM 23.0 °F - 17.6 °F 80% 30.16 in 10.0 mi Calm Calm - N/A   Scattered Clouds
5:55 AM 23.0 °F - 17.6 °F 80% 30.16 in 10.0 mi Calm Calm - N/A   Clear
6:15 AM 23.0 °F - 17.6 °F 80% 30.16 in 10.0 mi Calm Calm - N/A   Clear
6:35 AM 23.0 °F - 17.6 °F 80% 30.16 in 10.0 mi Calm Calm - N/A   Clear
6:55 AM 21.2 °F - 17.6 °F 86% 30.17 in 10.0 mi Calm Calm - N/A   Clear
7:15 AM 21.2 °F - 17.6 °F 86% 30.18 in 10.0 mi Calm Calm - N/A   Clear
7:35 AM 23.0 °F - 17.6 °F 80% 30.19 in 10.0 mi Calm Calm - N/A   Clear
7:55 AM 24.8 °F - 17.6 °F 74% 30.19 in 10.0 mi Calm Calm - N/A   Clear
8:15 AM 28.4 °F 24.6 °F 19.4 °F 69% 30.20 in 10.0 mi SW 3.5 mph - N/A   Clear
8:35 AM 30.2 °F 25.4 °F 21.2 °F 69% 30.21 in 10.0 mi SW 4.6 mph - N/A   Clear
8:55 AM 32.0 °F 27.5 °F 21.2 °F 64% 30.21 in 10.0 mi SW 4.6 mph - N/A   Clear
9:15 AM 32.0 °F 27.5 °F 21.2 °F 64% 30.21 in 10.0 mi SW 4.6 mph - N/A   Clear
9:35 AM 33.8 °F 28.6 °F 21.2 °F 60% 30.20 in 10.0 mi SW 5.8 mph - N/A   Clear
9:55 AM 35.6 °F 32.8 °F 21.2 °F 56% 30.20 in 10.0 mi WSW 3.5 mph - N/A   Clear
10:15 AM 37.4 °F 32.1 °F 19.4 °F 48% 30.20 in 10.0 mi NW 6.9 mph - N/A   Clear
10:35 AM 37.4 °F 33.8 °F 21.2 °F 52% 30.20 in 10.0 mi WSW 4.6 mph - N/A   Clear
10:55 AM 37.4 °F 31.4 °F 19.4 °F 48% 30.19 in 10.0 mi SW 8.1 mph - N/A   Clear
11:15 AM 39.2 °F 37.0 °F 19.4 °F 45% 30.18 in 10.0 mi West 3.5 mph - N/A   Clear
11:35 AM 41.0 °F - 19.4 °F 42% 30.18 in 10.0 mi Calm Calm - N/A   Clear
11:55 AM 41.0 °F 38.0 °F 17.6 °F 39% 30.18 in 10.0 mi West 4.6 mph - N/A   Clear
12:15 PM 41.0 °F 37.1 °F 19.4 °F 42% 30.16 in 10.0 mi SSW 5.8 mph - N/A   Clear
12:35 PM 41.0 °F 38.0 °F 14.0 °F 33% 30.16 in 10.0 mi South 4.6 mph - N/A   Clear
12:55 PM 42.8 °F 40.1 °F 17.6 °F 36% 30.14 in 10.0 mi SW 4.6 mph - N/A   Clear
1:15 PM 42.8 °F 41.1 °F 15.8 °F 34% 30.13 in 10.0 mi SSW 3.5 mph - N/A   Clear
1:55 PM 44.6 °F 42.2 °F 17.6 °F 34% 30.11 in 10.0 mi ESE 4.6 mph - N/A   Clear
2:15 PM 44.6 °F 42.2 °F 17.6 °F 34% 30.10 in 10.0 mi West 4.6 mph - N/A   Clear
2:35 PM 44.6 °F 40.7 °F 17.6 °F 34% 30.10 in 10.0 mi SW 6.9 mph - N/A   Clear
2:55 PM 44.6 °F 42.2 °F 17.6 °F 34% 30.10 in 10.0 mi WSW 4.6 mph - N/A   Clear
3:15 PM 44.6 °F 41.4 °F 15.8 °F 31% 30.09 in 10.0 mi SW 5.8 mph - N/A   Clear
3:35 PM 44.6 °F 43.1 °F 14.0 °F 29% 30.09 in 10.0 mi SSW 3.5 mph - N/A   Clear
3:55 PM 44.6 °F 43.1 °F 14.0 °F 29% 30.08 in 10.0 mi South 3.5 mph - N/A   Clear
4:15 PM 44.6 °F - 14.0 °F 29% 30.08 in 10.0 mi Calm Calm - N/A   Clear
4:35 PM 44.6 °F 43.1 °F 14.0 °F 29% 30.08 in 10.0 mi SSW 3.5 mph - N/A   Clear
4:55 PM 44.6 °F - 14.0 °F 29% 30.07 in 10.0 mi Calm Calm - N/A   Clear
5:15 PM 42.8 °F - 14.0 °F 31% 30.07 in 10.0 mi Calm Calm - N/A   Clear
5:35 PM 42.8 °F - 14.0 °F 31% 30.07 in 10.0 mi Calm Calm - N/A   Clear
5:55 PM 41.0 °F - 15.8 °F 36% 30.08 in 10.0 mi Calm Calm - N/A   Clear
6:15 PM 39.2 °F - 17.6 °F 42% 30.07 in 10.0 mi Calm Calm - N/A   Clear
6:35 PM 37.4 °F - 17.6 °F 45% 30.07 in 10.0 mi Calm Calm - N/A   Clear
6:55 PM 35.6 °F - 19.4 °F 52% 30.08 in 10.0 mi Calm Calm - N/A   Clear
7:15 PM 35.6 °F - 17.6 °F 48% 30.08 in 10.0 mi Calm Calm - N/A   Clear
7:35 PM 35.6 °F - 19.4 °F 52% 30.09 in 10.0 mi Calm Calm - N/A   Clear
7:55 PM 33.8 °F - 19.4 °F 56% 30.09 in 10.0 mi Calm Calm - N/A   Clear
8:15 PM 33.8 °F - 19.4 °F 56% 30.09 in 10.0 mi Calm Calm - N/A   Clear
8:35 PM 33.8 °F - 21.2 °F 60% 30.09 in 10.0 mi Calm Calm - N/A   Clear
8:55 PM 33.8 °F - 23.0 °F 65% 30.08 in 10.0 mi Calm Calm - N/A   Clear
9:35 PM 32.0 °F - 24.8 °F 75% 30.07 in 10.0 mi Calm Calm - N/A   Clear
9:55 PM 32.0 °F - 24.8 °F 75% 30.07 in 10.0 mi Calm Calm - N/A   Clear
10:15 PM 33.8 °F - 26.6 °F 75% 30.06 in 10.0 mi Calm Calm - N/A   Clear
10:35 PM 33.8 °F - 26.6 °F 75% 30.07 in 10.0 mi Calm Calm - N/A   Clear
10:55 PM 33.8 °F - 26.6 °F 75% 30.07 in 10.0 mi Calm Calm - N/A   Clear
11:15 PM 35.6 °F - 24.8 °F 65% 30.07 in 10.0 mi Calm Calm - N/A   Clear
11:55 PM 33.8 °F - 30.2 °F 87% 30.07 in 7.0 mi Calm Calm - N/A Rain Light Rain